SCP
0 0 0 0 0 0 0 0 0 0 0 0 0 0 0 0 0 0 0 0 0 0 0 0 0 0 0 0 0 0 0 0 0 0 0 0 0 0 0 0 0 0 0 0
0 0 0 0 0 0 0 0 0 0 0 0 0 0 0 0 0 0 0 0 0 0 0 0 0 0 0 0 0 0 0 0 0 0 0 0 0 0 0 0 0 0 0 0
0 0 0 0 0 0 0 0 0 0 0 0 0 0 0 0 0 0 0 0 0 0 0 0 0 0 0 0 0 0 0 0 0 0 0 0 0 0 0 0 0 0 0 0
0 0 0 0 0 0 0 0 0 0 0 0 0 0 0 0 0 0 0 0 0 0 0 0 0 0 0 0 0 0 0 0 0 0 0 0 0 0 0 0 0 0 0 0
0 0 0 0 0 0 0 0 0 0 0 0 0 0 0 0 0 0 0 0 0 0 0 0 0 0 0 0 0 0 0 0 0 0 0 0 0 0 0 0 0 0 0 0
0 0 0 0 0 0 0 0 0 0 0 0 0 0 0 0 0 0 0 0 0 0 0 0 0 0 0 0 0 0 0 0 0 0 0 0 0 0 0 0 0 0 0 0
0 0 0 0 0 0 0 0 0 0 0 0 0 0 0 0 0 0 0 0 0 0 0 0 0 0 0 0 0 0 0 0 0 0 0 0 0 0 0 0 0 0 0 0
0 0 0 0 0 0 0 0 0 0 0 0 0 0 0 0 0 0 0 0 0 0 0 0 0 0 0 0 0 0 0 0 0 0 0 0 0 0 0 0 0 0 0 0
0 0 0 0 0 0 0 0 0 0 0 0 0 0 0 0 0 0 0 0 0 0 0 0 0 0 0 0 0 0 0 0 0 0 0 0 0 0 0 0 0 0 0 0
0 0 0 0 0 0 0 0 0 0 0 0 0 0 0 0 0 0 0 0 0 0 0 0 0 0 0 0 0 0 0 0 0 0 0 0 0 0 0 0 0 0 0 0
0 0 0 0 0 0 0 0 0 0 0 0 0 0 0 0 0 0 0 0 0 0 0 0 0 0 0 0 0 0 0 0 0 0 0 0 0 0 0 0 0 0 0 0
0 0 0 0 0 0 0 0 0 0 0 0 0 0 0 0 0 0 0 0 0 0 0 0 0 0 0 0 0 0 0 0 0 0 0 0 0 0 0 0 0 0 0 0
0 0 0 0 0 0 0 0 0 0 0 0 0 0 0 0 0 0 0 0 0 0 0 0 0 0 0 0 0 0 0 0 0 0 0 0 0 0 0 0 0 0 0 0
0 0 0 0 0 0 0 0 0 0 0 0 0 0 0 0 0 0 0 0 0 0 0 0 0 0 0 0 0 0 0 0 0 0 0 0 0 0 0 0 0 0 0 0
0 0 0 0 0 0 0 0 0 0 0 0 0 0 0 0 0 0 0 0 0 0 0 0 0 0 0 0 0 0 0 0 0 0 0 0 0 0 0 0 0 0 0 0
0 0 0 0 0 0 0 0 0 0 0 0 0 0 0 0 0 0 0 0 0 0 0 0 0 0 0 0 0 0 0 0 0 0 0 0 0 0 0 0 0 0 0 0
0 0 0 0 0 0 0 0 0 0 0 0 0 0 0 0 0 0 0 0 0 0 0 0 0 0 0 0 0 0 0 0 0 0 0 0 0 0 0 0 0 0 0 0
0 0 0 0 0 0 0 0 0 0 0 0 0 0 0 0 0 0 0 0 0 0 0 0 0 0 0 0 0 0 0 0 0 0 0 0 0 0 0 0 0 0 0 0
0 0 0 0 0 0 0 0 0 0 0 0 0 0 0 0 0 0 0 0 0 0 0 0 0 0 0 0 0 0 0 0 0 0 0 0 0 0 0 0 0 0 0 0
0 0 0 0 0 0 0 0 0 0 0 0 0 0 0 0 0 0 0 0 0 0 0 0 0 0 0 0 0 0 0 0 0 0 0 0 0 0 0 0 0 0 0 0
0 0 0 0 0 0 0 0 0 0 0 0 0 0 0 0 0 0 0 0 0 0 0 0 0 0 0 0 0 0 0 0 0 0 0 0 0 0 0 0 0 0 0 0
0 0 0 0 0 0 0 0 0 0 0 0 0 0 0 0 0 0 0 0 0 0 0 0 0 0 0 0 0 0 0 0 0 0 0 0 0 0 0 0 0 0 0 0
0 0 0 0 0 0 0 0 0 0 0 0 0 0 0 0 0 0 0 0 0 0 0 0 0 0 0 0 0 0 0 0 0 0 0 0 0 0 0 0 0 0 0 0
0 0 0 0 0 0 0 0 0 0 0 0 0 0 0 0 0 0 0 0 0 0 0 0 0 0 0 0 0 0 0 0 0 0 0 0 0 0 0 0 0 0 0 0
0 0 0 0 0 0 0 0 0 0 0 0 0 0 0 0 0 0 0 0 0 0 0 0 0 0 0 0 0 0 0 0 0 0 0 0 0 0 0 0 0 0 0 0
0 0 0 0 0 0 0 0 0 0 0 0 0 0 0 0 0 0 0 0 0 0 0 0 0 0 0 0 0 0 0 0 0 0 0 0 0 0 0 0 0 0 0 0
0 0 0 0 0 0 0 0 0 0 0 0 0 0 0 0 0 0 0 0 0 0 0 0 0 0 0 0 0 0 0 0 0 0 0 0 0 0 0 0 0 0 0 0
Wind_Speed
5 2 4 6 7 8 10 9 9 9 10 13 9 11 13 13 11 12 14 14 13 13 13 14 14 14 14 14 14 15 15 15 15 16 16 16 17 17 18 18 18 18 18 18
3 2 4 8 10 10 11 10 11 12 11 3 7 10 13 12 10 12 14 13 13 14 14 15 15 15 14 14 14 14 14 14 15 15 16 16 16 16 17 17 17 17 17 18
3 2 7 9 8 11 7 8 8 8 6 6 10 12 13 9 8 12 13 13 13 14 14 14 14 14 14 15 15 14 14 14 15 15 16 16 16 16 16 16 17 17 17 18
5 5 7 2 3 4 6 7 8 9 8 6 9 11 6 3 8 11 11 12 12 12 13 13 13 13 14 14 14 14 14 14 15 15 16 16 16 16 15 14 15 15 16 18
2 5 10 3 5 6 5 6 6 7 6 6 7 11 3 1 6 9 10 10 10 11 12 13 13 13 14 14 14 14 15 15 16 16 16 16 16 16 14 14 14 14 14 16
3 5 8 2 7 5 2 5 6 7 6 6 6 8 5 3 6 7 9 9 10 11 12 12 12 13 14 15 14 15 16 16 17 16 16 16 16 16 14 14 14 14 14 15
6 7 9 6 9 8 4 3 7 6 4 3 4 4 4 4 5 7 8 10 10 11 11 11 12 13 14 14 15 15 16 17 17 16 16 15 14 14 14 13 13 13 14 14
6 7 7 12 11 9 1 6 6 4 2 1 1 1 2 4 6 8 9 10 11 11 12 11 11 12 14 14 15 16 16 16 16 16 14 12 14 13 13 12 12 12 12 12
9 4 4 11 6 4 5 5 5 4 4 4 2 1 2 4 6 7 9 9 10 11 12 12 12 12 14 14 15 16 16 16 15 15 14 13 13 13 12 11 10 10 9 9
9 7 6 10 6 6 5 5 6 6 7 5 4 3 2 4 6 7 8 9 9 11 12 13 13 13 13 14 15 15 16 15 14 14 14 14 11 10 10 10 10 10 8 7
9 4 5 9 10 9 8 9 9 8 7 6 5 4 1 3 5 6 7 8 9 10 12 13 14 14 14 14 14 15 15 14 14 12 13 13 12 10 11 10 11 12 8 7
7 7 8 8 11 12 12 10 10 9 8 6 5 4 0 3 5 6 7 9 10 11 12 13 13 14 14 14 15 15 14 14 11 11 11 11 11 11 13 14 16 16 14 12
4 6 6 10 11 10 10 10 9 8 8 7 5 3 1 3 5 6 7 9 10 11 12 12 12 13 14 14 15 15 14 13 11 11 11 11 11 11 11 12 13 13 14 14
9 10 8 8 9 10 11 11 10 9 7 7 5 3 1 3 4 6 7 8 10 10 11 11 12 13 14 15 14 14 13 13 13 11 11 11 11 10 10 10 9 8 9 11
11 5 9 11 13 12 12 11 10 8 8 6 4 2 1 3 5 6 7 8 9 9 10 11 12 14 15 14 14 14 12 10 10 10 10 10 10 10 9 9 8 7 6 6
11 10 13 15 15 13 12 11 10 9 8 6 4 3 2 3 5 6 6 7 8 9 10 11 12 14 14 14 13 11 10 14 14 10 10 10 10 10 10 9 8 7 6 6
17 14 13 14 14 14 12 10 9 9 8 7 5 3 3 3 3 5 6 7 7 8 8 10 12 14 13 13 12 9 8 10 14 11 10 10 9 9 9 9 8 7 6 8
16 15 16 17 16 15 12 11 10 10 8 6 5 4 2 2 5 6 7 8 7 6 7 11 13 13 12 12 10 8 7 8 9 9 9 10 10 8 8 8 8 8 6 6
12 13 13 13 14 14 12 12 11 9 8 7 6 4 1 1 4 5 6 6 7 7 9 12 17 13 12 13 13 7 8 8 9 9 9 11 10 8 8 8 8 8 7 6
11 12 13 13 13 11 12 11 11 10 8 7 6 4 2 1 3 5 5 4 3 5 9 11 11 10 10 11 13 7 8 9 9 9 9 9 9 8 8 8 8 8 7 6
13 14 14 14 13 12 13 13 12 11 9 7 6 4 2 1 3 3 4 3 4 7 9 10 8 8 9 10 10 7 8 8 9 9 9 9 8 8 8 8 8 7 7 7
14 14 14 14 14 13 11 11 10 10 9 7 6 4 3 2 1 2 3 3 6 10 7 5 7 11 13 11 7 7 8 9 9 9 9 9 9 8 8 8 8 7 7 7
13 13 14 14 14 13 12 10 10 10 9 9 7 6 4 1 1 2 3 4 6 9 6 5 10 14 15 8 7 7 8 9 9 10 10 10 10 9 9 9 8 7 7 7
14 14 13 12 13 13 13 11 9 7 7 7 6 5 4 2 2 2 3 7 8 8 4 7 11 13 11 6 6 7 7 8 9 10 10 10 11 11 10 10 9 9 9 10
15 14 14 14 14 11 12 11 10 8 8 6 6 6 5 3 2 2 3 5 7 7 4 6 10 11 7 6 6 7 7 8 9 10 10 11 11 12 12 12 11 10 9 9
13 12 12 12 10 9 10 10 9 8 8 7 6 6 5 4 3 2 2 3 4 5 4 4 5 6 5 6 6 7 7 8 9 9 11 11 13 13 12 14 16 13 12 11
12 11 9 9 8 9 10 10 10 10 10 9 7 6 6 5 4 3 2 2 2 2 3 3 4 4 4 5 6 6 6 7 8 9 10 10 11 12 13 15 13 13 13 13
Wind_Direction
277 274 258 259 246 221 226 247 267 292 304 322 343 338 337 341 343 340 340 345 346 342 339 338 337 336 335 334 334 334 334 336 336 335 333 333 333 335 336 337 337 336 337 336
257 201 269 265 249 236 237 244 254 276 293 1 330 327 332 343 344 336 339 342 342 339 337 336 335 333 331 328 330 329 330 330 330 331 332 331 330 335 337 336 336 337 337 337
277 286 289 265 233 205 208 220 240 271 308 330 320 332 336 342 341 334 337 339 339 336 333 331 328 327 324 325 324 324 325 325 325 326 329 328 328 331 335 333 334 335 335 337
296 304 269 83 52 190 218 240 236 258 285 299 320 325 330 360 338 335 336 334 333 331 327 324 322 321 320 321 320 321 321 321 322 324 322 322 326 326 330 333 330 329 332 336
268 278 271 169 181 179 216 264 221 237 259 297 325 300 217 98 338 331 331 329 327 326 322 320 322 323 321 320 322 322 321 321 321 320 320 320 321 320 328 331 328 327 331 335
211 261 270 103 138 146 188 260 185 210 258 303 316 314 19 29 335 334 331 330 328 324 323 324 326 325 321 322 325 327 325 321 319 319 321 322 320 322 325 326 328 328 329 334
225 248 273 111 139 156 217 12 150 203 250 279 293 324 359 348 344 338 331 332 330 327 326 328 327 324 322 324 328 328 323 319 319 323 325 323 323 323 322 322 324 327 330 334
204 234 261 138 158 198 213 112 164 185 177 196 287 347 344 349 344 336 332 334 334 329 326 327 328 327 323 326 328 325 321 321 324 327 326 324 325 325 324 324 323 325 329 335
210 235 80 169 186 180 135 156 165 157 140 140 159 131 359 346 336 331 330 332 333 327 322 327 335 331 323 326 327 324 323 326 327 326 325 327 329 329 329 328 324 322 318 326
252 251 200 188 178 162 155 140 128 124 129 140 145 119 18 340 332 329 329 333 333 327 326 331 334 331 326 327 328 325 326 328 328 328 328 331 334 334 331 328 325 327 338 344
247 227 173 191 190 165 130 124 124 119 127 139 139 122 54 324 324 326 328 334 332 329 327 328 331 330 331 334 332 329 329 330 329 328 329 333 337 337 338 340 346 355 352 344
224 187 179 179 169 152 142 144 140 138 139 134 128 127 85 310 320 324 332 332 329 329 329 329 329 329 334 337 335 333 332 334 331 330 335 339 340 342 350 352 354 2 0 358
125 129 121 125 135 141 137 138 145 149 148 144 134 127 342 320 324 331 335 335 330 326 325 325 328 332 338 339 336 335 336 335 331 336 343 344 343 341 340 345 357 6 4 0
144 130 130 146 145 137 129 129 129 126 130 138 132 122 335 316 326 335 334 325 320 320 322 326 331 337 341 338 336 337 340 339 340 342 342 340 341 341 341 343 348 0 3 3
168 154 141 134 129 128 129 135 140 141 145 139 132 145 271 314 325 322 319 319 318 320 329 333 333 337 340 338 339 338 345 347 344 343 342 344 348 349 349 350 355 357 357 5
148 126 131 139 145 147 150 158 161 158 158 155 165 190 252 291 303 308 316 326 325 326 327 327 330 333 336 341 338 338 350 351 352 348 348 351 356 356 353 354 359 360 359 356
148 152 156 160 162 164 169 174 165 157 159 164 173 198 248 297 320 335 337 332 317 309 316 330 332 331 340 342 340 341 344 344 351 352 354 355 356 355 353 354 0 358 356 355
176 169 168 167 165 166 168 163 152 152 161 165 166 194 214 4 352 335 329 325 324 333 349 347 332 338 341 342 346 341 339 341 346 351 354 356 356 352 350 351 355 355 351 350
165 158 156 158 158 158 158 153 149 151 153 159 173 177 164 347 331 321 318 322 336 348 345 333 334 342 338 345 351 342 339 341 345 347 350 354 354 350 348 347 346 346 345 343
150 146 143 143 143 147 148 144 146 151 158 165 169 172 166 352 326 315 305 298 330 315 304 321 336 334 336 344 350 344 343 342 342 342 343 350 351 348 346 341 337 335 336 334
145 141 141 143 144 146 146 148 154 160 165 173 176 170 173 267 298 300 298 328 348 322 327 342 336 331 343 349 347 346 346 343 341 339 339 341 343 342 339 335 328 324 323 321
147 148 148 148 146 145 148 154 158 160 165 173 176 181 199 224 306 309 275 294 315 325 343 339 327 344 356 352 343 346 346 344 340 338 340 339 335 331 328 325 319 315 311 308
153 154 155 156 153 146 148 156 164 169 174 179 183 189 189 188 307 313 313 314 315 334 354 337 337 350 357 350 343 345 346 345 340 342 343 341 337 329 321 316 308 301 296 295
152 155 154 147 141 146 159 168 169 175 179 182 190 197 196 193 207 232 279 307 325 340 352 342 351 356 357 349 344 345 346 342 340 342 342 340 338 336 334 326 315 305 293 287
151 150 150 153 160 168 167 161 165 174 182 193 203 208 211 212 222 274 302 310 323 340 345 348 359 1 358 345 345 343 341 340 344 344 343 341 338 338 341 342 338 328 315 302
153 160 167 173 169 161 161 167 175 180 184 191 199 201 200 200 213 243 277 300 314 340 350 348 349 354 351 345 343 341 340 340 343 346 344 341 336 338 343 346 345 345 340 333
150 153 156 164 169 170 169 175 179 183 187 189 190 190 191 191 192 202 237 270 301 330 349 354 349 347 346 341 338 340 339 340 344 346 345 340 334 334 341 345 346 345 346 346